This is the latest recevied weather packets stored in our database for station/object KC0UFP. If no packets are shown the sender has not sent any weather packets the latest 10 day(s).
| Time | Temp. | Humidity | Pressure | Rain* | Wind** | Luminosity | Snow |
|---|---|---|---|---|---|---|---|
| 1777609963 | 13.89° C | 79% | 1015.8 hPa | 0 mm | - | 0 W/m² | - |
| 1777609659 | 13.89° C | 79% | 1015.9 hPa | 0 mm | - | 0 W/m² | - |
| 1777609357 | 13.89° C | 79% | 1016.1 hPa | 0 mm | - | 0 W/m² | - |
| 1777609055 | 13.89° C | 78% | 1016 hPa | 0 mm | - | 0 W/m² | - |
| 1777608752 | 13.89° C | 76% | 1016.3 hPa | 0 mm | - | 0 W/m² | - |
| 1777608447 | 13.89° C | 75% | 1016.2 hPa | 0 mm | - | 0 W/m² | - |
| 1777608146 | 14.44° C | 75% | 1016 hPa | 0 mm | - | 0 W/m² | - |
| 1777607843 | 14.44° C | 74% | 1016.3 hPa | 0 mm | - | 0 W/m² | - |
| 1777607539 | 13.89° C | 71% | 1016.1 hPa | 0 mm | - | 0 W/m² | - |
| 1777607235 | 13.89° C | 73% | 1016.3 hPa | 0 mm | - | 0 W/m² | - |
| 1777606931 | 13.89° C | 75% | 1016.1 hPa | 0 mm | - | 0 W/m² | - |
| 1777606627 | 13.89° C | 76% | 1016.2 hPa | 0 mm | - | 0 W/m² | - |
| 1777606322 | 13.89° C | 74% | 1016.1 hPa | 0 mm | - | 0 W/m² | - |
| 1777606018 | 13.89° C | 71% | 1016.1 hPa | 0 mm | - | 0 W/m² | - |
| 1777605714 | 13.89° C | 68% | 1016.1 hPa | 0 mm | - | 0 W/m² | - |
| 1777605413 | 13.89° C | 72% | 1016.2 hPa | 0 mm | - | 0 W/m² | - |
| 1777605110 | 13.89° C | 71% | 1016.1 hPa | 0 mm | - | 0 W/m² | - |
| 1777604805 | 13.89° C | 71% | 1016.3 hPa | 0 mm | - | 0 W/m² | - |
| 1777604503 | 13.89° C | 77% | 1016.2 hPa | 0 mm | - | 0 W/m² | - |
| 1777604202 | 13.89° C | 69% | 1015.8 hPa | 0 mm | - | 0 W/m² | - |
| 1777603899 | 13.89° C | 65% | 1016.1 hPa | 0 mm | - | 0 W/m² | - |
| 1777603595 | 13.89° C | 69% | 1015.9 hPa | 0 mm | - | 0 W/m² | - |
| 1777603291 | 13.89° C | 62% | 1016.1 hPa | 0 mm | - | 0 W/m² | - |
| 1777602987 | 14.44° C | 63% | 1016.3 hPa | 0 mm | - | 0 W/m² | - |
| 1777602683 | 14.44° C | 61% | 1016 hPa | 0 mm | - | 0 W/m² | - |
* Rain latest hour (hover to see other rain measurements)
** Current wind speed in m/s (hover to see current wind gust speed)